TimePDT,TemperatureF,Dew PointF,Humidity,Sea Level PressureIn,VisibilityMPH,Wind Direction,Wind SpeedMPH,Gust SpeedMPH,PrecipitationIn,Events,Conditions,WindDirDegrees,DateUTC
12:53 AM,61.0,50.0,67,29.88,10.0,Variable,4.6,-,0.00,,Overcast,0,2012-10-15 07:53:00
1:53 AM,62.1,50.0,65,29.87,10.0,Calm,Calm,-,0.00,,Overcast,0,2012-10-15 08:53:00
2:53 AM,57.0,51.1,81,29.88,10.0,SSW,4.6,-,N/A,,Overcast,210,2012-10-15 09:53:00
3:53 AM,53.1,48.9,86,29.86,10.0,Calm,Calm,-,N/A,,Clear,0,2012-10-15 10:53:00
4:53 AM,50.0,46.0,86,29.86,10.0,West,6.9,-,N/A,,Clear,270,2012-10-15 11:53:00
5:53 AM,46.9,44.1,90,29.88,10.0,Calm,Calm,-,N/A,,Clear,0,2012-10-15 12:53:00
6:53 AM,46.9,45.0,93,29.90,10.0,WSW,4.6,-,N/A,,Scattered Clouds,250,2012-10-15 13:53:00
7:53 AM,48.0,44.1,86,29.92,10.0,West,6.9,-,N/A,,Scattered Clouds,270,2012-10-15 14:53:00
8:53 AM,55.0,48.0,77,29.93,10.0,WNW,3.5,-,N/A,,Partly Cloudy,300,2012-10-15 15:53:00
9:53 AM,61.0,50.0,67,29.92,10.0,Calm,Calm,-,N/A,,Partly Cloudy,0,2012-10-15 16:53:00
10:53 AM,63.0,51.1,65,29.90,10.0,East,3.5,-,N/A,,Partly Cloudy,100,2012-10-15 17:53:00
11:53 AM,68.0,52.0,56,29.88,10.0,NNE,5.8,-,N/A,,Partly Cloudy,30,2012-10-15 18:53:00
12:53 PM,71.1,45.0,39,29.84,10.0,SW,9.2,-,N/A,,Partly Cloudy,220,2012-10-15 19:53:00
1:53 PM,69.1,48.9,49,29.82,10.0,SSW,11.5,-,N/A,,Partly Cloudy,200,2012-10-15 20:53:00
2:53 PM,66.9,50.0,54,29.78,10.0,South,16.1,24.2,N/A,,Mostly Cloudy,190,2012-10-15 21:53:00
3:53 PM,63.0,55.0,75,29.77,10.0,South,9.2,-,0.01,Rain,Light Rain,180,2012-10-15 22:53:00
4:53 PM,63.0,55.0,75,29.76,6.0,South,8.1,-,0.02,Rain,Rain,190,2012-10-15 23:53:00
5:53 PM,60.1,57.0,90,29.72,10.0,SE,4.6,-,0.09,Rain,Light Rain,130,2012-10-16 00:53:00
6:53 PM,60.1,57.0,90,29.68,10.0,NE,3.5,-,0.05,Rain,Light Rain,50,2012-10-16 01:53:00
7:53 PM,59.0,55.9,90,29.65,10.0,Calm,Calm,-,0.01,Rain,Light Rain,0,2012-10-16 02:53:00
8:53 PM,60.1,55.9,86,29.62,10.0,ESE,4.6,-,0.00,,Clear,120,2012-10-16 03:53:00
9:53 PM,57.9,55.0,90,29.60,9.0,SSW,4.6,-,0.01,Rain,Light Rain,200,2012-10-16 04:53:00
10:53 PM,57.0,54.0,89,29.57,10.0,Calm,Calm,-,0.02,,Mostly Cloudy,0,2012-10-16 05:53:00
11:53 PM,57.9,54.0,87,29.57,10.0,North,-9999.0,-,N/A,,Mostly Cloudy,0,2012-10-16 06:53:00